Hourly Data Report for November 15, 2019

OTTAWA INTL A
ONTARIO
Current Station Operator: NAVCAN

45°19'00.000" N
75°40'00.000" W
114.90 m
6106001
71628
YOW

Download Data

Hourly Data (November 2019)
Hourly Data Report for November 15, 2019
TIME Temp Definition
°C
Dew Point Definition
°C
Rel Hum Definition
%
Wind Dir Definition
10's deg

Wind Spd Definition
km/h
Visibility Definition
km
Stn Press Definition
kPa
Hmdx Definition


Wind Chill Definition


Weather Definition


00:00 -1.0 -3.9 81 20 12 12.9 100.50   -5 LegendNANA
01:00 -1.2 -3.9 82 20 12 16.1 100.39   -5 Cloudy
02:00 -0.8 -4.2 78 22 14 16.1 100.35   -5 LegendNANA
03:00 -0.5 -4.6 74 23 21 12.9 100.32   -6 LegendNANA
04:00 -0.8 -4.7 75 21 18 16.1 100.25   -6 Cloudy
05:00 -0.6 -4.7 74 21 24 16.1 100.19   -7 LegendNANA
06:00 -0.7 -4.6 75 21 25 16.1 100.17   -7 LegendNANA
07:00 -0.6 -5.0 72 21 22 16.1 100.18   -6 Mostly Cloudy
08:00 0.0 -4.6 71 21 30 24.1 100.19   -6 LegendNANA
09:00 0.4 -4.1 72 22 25 16.1 100.17     Snow
10:00 0.6 -3.5 74 22 39 16.1 100.15     Snow
11:00 1.0 -2.9 75 23 32 16.1 100.20     Snow
12:00 0.6 -2.4 80 24 24 16.1 100.18     Snow
13:00 1.1 -2.3 78 23 27 24.1 100.17     Snow
14:00 -1.3 -5.1 75 30 34 16.1 100.34   -9 Blowing Snow
15:00 -0.9 -7.2 63 29 26 24.1 100.39   -7 LegendNANA
16:00 -0.5 -6.8 62 29 27 24.1 100.53   -7 Snow Showers
17:00 -2.4 -5.9 77 28 23 24.1 100.69   -9 LegendNANA
18:00 -3.0 -10.7 56 30 38 24.1 100.88   -11 Blowing Snow
19:00 -4.3 -12.2 54 29 26 24.1 101.10   -12 Clear
20:00 -6.1 -13.7 55 30 32 24.1 101.26   -15 LegendNANA
21:00 -7.8 -14.6 59 31 27 24.1 101.47   -16 LegendNANA
22:00 -9.3 -15.6 61 32 24 24.1 101.62   -18 Clear
23:00 -10.2 -16.4 60 33 23 24.1 101.74   -19 LegendNANA

Notes on Data Quality.

Legend

  • E = Estimated
  • M = Missing
  • NA = Not Available*
  • [empty] = Indicates an unobserved value
Date modified: